Location: Haieshausen
(51.8387°N, 9.9720°E)
Time: 04:07:09
(UTC+00:00)

Cosmos 1500 - Pass Details

Date: 14 July 2020
Orbit: 498 x 520 km, 82.5° (Epoch: 10 August)

Event Time Altitude Azimuth Distance (km) Brightness Sun altitude
Exits shadow 00:58:25 19° 169° (SSE) 1,255 4.7 -13.8°
Maximum altitude 01:00:55 56° 96° (E) 617 3.6 -13.7°
Drops below altitude 10° 01:04:39 10° 18° (NNE) 1,737 7.3 -13.4°
Sets 01:06:48 0° 14° (NNE) 2,623 8.6 -13.3°
